This is the latest recevied weather packets stored in our database for station/object KO6TH-15. If no packets are shown the sender has not sent any weather packets the latest 10 day(s).
| Time | Temp. | Humidity | Pressure | Rain* | Wind** | Luminosity | Snow |
|---|---|---|---|---|---|---|---|
| 1777767953 | 23.89° C | 57% | 0 hPa | 0 mm | - | - | - |
| 1777767890 | 23.89° C | 57% | 0 hPa | 0 mm | - | - | - |
| 1777767260 | 23.33° C | 56% | 0 hPa | 0 mm | - | - | - |
| 1777766630 | 24.44° C | 54% | 0 hPa | 0 mm | - | - | - |
| 1777766000 | 25° C | 54% | 0 hPa | 0 mm | - | - | - |
| 1777765400 | 25° C | 53% | 0 hPa | 0 mm | - | - | - |
| 1777764770 | 25.56° C | 51% | 0 hPa | 0 mm | - | - | - |
| 1777764140 | 26.11° C | 50% | 0 hPa | 0 mm | - | - | - |
| 1777763510 | 26.67° C | 49% | 0 hPa | 0 mm | - | - | - |
| 1777763043 | 26.11° C | 49% | 0 hPa | 0 mm | - | - | - |
| 1777762910 | 26.11° C | 49% | 0 hPa | 0 mm | - | - | - |
| 1777762280 | 27.22° C | 48% | 0 hPa | 0 mm | - | - | - |
| 1777761650 | 26.67° C | 47% | 0 hPa | 0 mm | - | - | - |
| 1777761050 | 26.11° C | 46% | 0 hPa | 0 mm | - | - | - |
| 1777760420 | 26.11° C | 45% | 0 hPa | 0 mm | - | - | - |
| 1777759790 | 25° C | 47% | 0 hPa | 0 mm | - | - | - |
| 1777759160 | 25.56° C | 46% | 0 hPa | 0 mm | - | - | - |
| 1777758560 | 25° C | 44% | 0 hPa | 0 mm | - | - | - |
| 1777757930 | 25° C | 43% | 0 hPa | 0 mm | - | - | - |
| 1777757300 | 26.11° C | 41% | 0 hPa | 0 mm | - | - | - |
| 1777756670 | 26.11° C | 42% | 0 hPa | 0 mm | - | - | - |
| 1777756040 | 26.11° C | 41% | 0 hPa | 0 mm | - | - | - |
| 1777755410 | 25.56° C | 41% | 0 hPa | 0 mm | - | - | - |
| 1777754780 | 25° C | 44% | 0 hPa | 0 mm | - | - | - |
| 1777754150 | 24.44° C | 40% | 0 hPa | 0 mm | - | - | - |
* Rain latest hour (hover to see other rain measurements)
** Current wind speed in m/s (hover to see current wind gust speed)